Location: Maiden
(35.5760°N, 81.2120°W)
Time: 03:24:59
(UTC-04:00)

SL-08 R/B - Pass Details

Date: 02 August 2020
Orbit: 949 x 1019 km, 82.9° (Epoch: 11 August)

Event Time Altitude Azimuth Distance (km) Brightness Sun altitude
Exits shadow 22:10:01 - 185° (S) 2,842 6.6 -18.8°
Reaches altitude 10° 22:10:16 10° 185° (S) 2,746 6.5 -18.8°
Maximum altitude 22:16:35 89° 276° (W) 985 4.5 -19.8°
Drops below altitude 10° 22:22:49 10° 6° (N) 2,713 7.3 -20.8°
Sets 22:25:18 0° 7° (N) 3,654 8.0 -21.1°
